Location: Little Chart
(51.1667°N, 0.7833°E)
Time: 04:01:47
(UTC+00:00)

Daily predictions for brighter satellites

Satellite Brightness Start Highest point End
(mag) Time Altitude Azimuth Time Altitude Azimuth Time Altitude Azimuth
ALOS 2 3.7 00:04:05 28° SW 00:05:17 32° W 00:09:16 10° NNW
SL-16 R/B 4.2 00:01:24 10° ESE 00:06:28 28° NE 00:11:34 10° N
Geosat 4.0 00:05:20 38° S 00:07:14 66° WSW 00:12:16 10° NW
NOSS 2-1 (E) 3.2 00:06:21 40° WSW 00:07:20 62° NW 00:10:56 10° NE
Cosmos 2360 Rocket 3.4 00:03:09 10° NW 00:07:48 27° WSW 00:09:32 23° SW
Nadezhda 1 Rocket 4.2 00:01:33 10° N 00:07:58 69° ENE 00:11:32 28° SSE
Cosmos 1862 Rocket 3.5 00:06:24 10° N 00:10:48 80° E 00:12:10 44° SSE
Cosmos 1980 4.2 00:05:24 10° NNW 00:11:01 57° NE 00:15:18 17° SE
MTI 3.7 00:09:08 10° N 00:12:06 62° WNW 00:12:10 61° W
Meteor 1-25 Rocket 4.2 00:10:11 33° SSW 00:12:49 77° WNW 00:18:26 10° N
Cosmos 1666 3.6 00:12:13 32° ESE 00:13:00 36° E 00:16:35 10° NNE
USA 229 DEB 3.8 00:08:25 10° NW 00:15:40 76° SW 00:21:07 21° SSE
USA 229 3.8 00:08:30 10° NW 00:15:46 77° SW 00:21:16 21° SSE
Resurs 1-4 Rocket 4.2 00:12:49 10° NE 00:16:09 17° E 00:19:08 11° ESE
Cosmos 2322 4.2 00:11:27 10° NW 00:16:54 47° WSW 00:18:54 33° SSW
SL-27 R/B 4.4 00:16:37 17° W 00:18:28 25° NW 00:21:31 10° N
Cosmos 1707 Rocket 4.0 00:16:50 10° NNW 00:21:01 47° W 00:22:09 38° SW
Lacrosse 5 4.0 00:21:12 12° ESE 00:21:17 12° ESE 00:23:11 10° E
Cosmos 1110 Rocket 4.0 00:16:04 10° NNW 00:21:24 71° WSW 00:23:33 36° S
Cosmos 2084 Rocket 4.3 00:18:15 10° NW 00:22:18 48° NE 00:26:30 10° ESE
Meteor 1-19 Rocket 4.4 00:16:42 10° NNW 00:22:22 62° W 00:24:42 34° SSW
Cosmos 1703 Rocket 4.4 00:20:36 10° N 00:24:45 42° ENE 00:26:49 25° SE
COSMOS 2487 2.8 00:25:44 46° WSW 00:26:21 55° WNW 00:29:42 10° NNE
Cosmos 546 4.5 00:25:24 22° WSW 00:27:51 78° S 00:31:47 10° E
Meteor 1-14 Rocket 4.2 00:26:17 34° S 00:28:42 72° E 00:34:18 10° NNE
USA 267 3.8 00:22:31 10° ENE 00:28:56 60° NNW 00:35:21 10° W
Cosmos 2084 3.9 00:27:37 22° WSW 00:30:02 55° NW 00:34:13 10° NE
Cosmos 1331 Rocket 4.0 00:26:29 10° NNW 00:31:42 65° WSW 00:33:43 37° S
Cosmos 2297 Rocket 3.3 00:31:41 24° SE 00:33:54 32° ESE 00:38:51 10° NE
Cosmos 2237 Rocket 2.3 00:29:41 10° NNW 00:35:24 77° ENE 00:39:17 21° SE
NOSS 3-1 (A) 4.1 00:28:41 10° NW 00:35:59 64° SW 00:41:59 21° SSE
ARGOS Delta rocket 4.5 00:33:33 10° NNE 00:38:10 44° E 00:40:01 29° SSE
SAR-Lupe-2 4.4 00:35:04 10° N 00:38:29 43° WNW 00:39:26 34° WSW
BREEZE-M DEB (TANK) 3.8 00:32:17 10° WSW 00:39:32 39° S 00:42:46 10° ESE
Cosmos 2227 Rocket 3.4 00:42:17 21° SE 00:44:43 29° ESE 00:49:32 10° NE
EO 1 Del DPAF 3.2 00:41:22 10° NNE 00:45:06 68° ESE 00:45:57 49° SSE
Cosmos 2242 Rocket 3.7 00:43:54 10° N 00:48:18 70° ENE 00:50:12 33° SSE
TSX-5 4.3 00:50:00 37° SE 00:50:44 42° ESE 00:54:56 10° NE
Meteor 2-4 Rocket 3.9 00:45:22 10° NNW 00:51:15 64° W 00:54:04 31° SSW
NOSS 2-2 (D) 4.4 00:46:43 10° NW 00:51:42 77° NE 00:58:43 10° SE
PSLV R/B 4.1 00:48:05 10° N 00:52:46 58° WNW 00:54:53 31° SW
Cosmos 1544 4.4 00:52:00 26° SE 00:53:07 31° E 00:56:22 10° NNE
CZ-2D R/B 3.4 00:49:10 10° NNE 00:53:57 32° E 00:57:06 18° SE
ASTEX 1 3.8 00:51:41 25° SSE 00:54:24 57° ENE 00:59:14 10° N
Cosmos 1500 4.0 00:54:07 33° WSW 00:55:12 41° WNW 00:58:52 10° N
CZ-4C R/B 4.0 00:48:52 10° NW 00:55:13 45° NNE 01:02:46 10° E
ADEOS II 4.2 00:53:30 10° NE 00:57:01 18° E 01:00:30 10° SE
COSMOS 2428 3.6 00:53:41 10° NW 00:58:42 32° WSW 01:00:22 27° SW
SL-16 R/B 3.1 00:53:27 10° NNW 00:58:57 48° NE 01:04:25 10° SE
Cosmos 1269 Rocket 4.2 01:00:30 32° S 01:02:52 63° ESE 01:08:06 10° NNE
Cosmos 2219 Rocket 3.4 01:00:26 10° NW 01:04:50 24° WSW 01:06:11 22° SW
Meteor 1-5 Rocket 4.3 01:07:27 30° SSW 01:10:21 73° WNW 01:16:12 10° N
Thor Agena Rocket 4.4 01:06:03 10° N 01:10:45 40° WNW 01:13:34 21° WSW
Cosmos 1869 Rocket 4.1 01:11:10 28° SSE 01:13:15 54° E 01:17:38 10° NNE
Meteor 2-17 Rocket 4.5 01:11:21 28° SSW 01:14:38 71° WNW 01:20:43 10° N
Cosmos 1470 Rocket 4.2 01:17:46 28° SW 01:19:28 42° WNW 01:23:37 10° N
Cosmos 1302 Rocket 4.3 01:15:53 10° NNW 01:20:54 49° WSW 01:23:07 30° SSW
Cosmos 1743 3.6 01:19:32 25° SSE 01:21:15 41° E 01:24:52 10° NNE
Cosmos 1992 Rocket 4.0 01:16:06 10° NNW 01:21:23 81° ENE 01:25:38 16° SSE
NOSS 2-2 (E) 4.4 01:16:43 10° NW 01:21:58 66° SW 01:29:19 10° SSE
Cosmos 1340 Rocket 2.8 01:20:53 38° SSW 01:22:13 68° WNW 01:26:09 10° N
COSMOS 2455 3.5 01:18:15 15° WSW 01:23:04 50° NW 01:28:57 10° NNE
Cosmos 1933 Rocket 3.9 01:24:35 31° SW 01:26:29 54° WNW 01:30:54 10° N
APEX 4.4 01:23:33 27° SW 01:26:49 79° WNW 01:33:27 10° NNE
Cosmos 1709 Rocket 4.1 01:23:31 27° SSW 01:27:13 75° W 01:33:38 10° N
Okean 3 3.4 01:23:47 10° NNW 01:28:07 82° W 01:30:09 30° S
Okean 1-7 3.4 01:24:52 10° NNW 01:28:58 47° W 01:30:27 32° SW
Helios 1A 3.2 01:27:32 34° SSW 01:29:05 53° W 01:33:14 10° NNW
Cosmos 2219 3.4 01:28:52 27° S 01:32:06 68° ESE 01:37:50 10° NNE
Cosmos 1066 Rocket 4.3 01:26:36 10° NNW 01:32:26 70° W 01:36:06 24° S
Timation 2 Rocket 4.3 01:31:17 23° S 01:34:49 52° ESE 01:40:44 10° NE
UNK 3.7 01:41:39 22° S 01:44:44 82° WSW 01:49:26 10° NNW
NOSS 2-2 (C) 4.4 01:39:45 10° NW 01:44:53 57° SW 01:52:01 10° SSE
Helios 1B rocket 3.0 01:43:20 10° NNE 01:47:21 50° E 01:49:49 21° SSE
ATLAS 5 CENTAUR R/B 3.1 01:42:30 10° WNW 01:47:25 31° WSW 01:50:05 23° SSW
IDEFIX/ARIANE 42P 4.3 01:43:48 10° NE 01:48:09 26° E 01:52:28 10° SSE
Cosmos 1378 4.3 01:45:13 10° NNW 01:48:23 27° W 01:49:14 24° WSW
Cosmos 1666 4.4 01:47:03 17° WSW 01:48:40 22° WNW 01:51:45 10° NNW
SL-16 R/B 2.5 01:44:52 18° S 01:49:36 71° WSW 01:55:49 10° NNW
Cosmos 2184 Rocket 4.3 01:45:03 18° S 01:49:48 67° E 01:56:04 10° NNE
Meteor 1-11 Rocket 3.8 01:49:09 24° SSW 01:52:32 65° WNW 01:58:03 10° N
Cosmos 2082 4.3 01:48:53 20° S 01:52:40 49° ESE 01:58:11 10° NE
Resurs 1-4 Rocket 2.1 01:51:20 10° NNE 01:56:42 86° WNW 02:00:13 22° SSW
Cosmos 2251 Rocket 4.0 01:54:37 19° S 01:58:12 54° ESE 02:03:23 10° NNE
Cosmos 1842 3.6 01:54:22 10° N 01:58:14 64° ENE 02:01:26 14° SSE
Cosmos 2084 Rocket 4.1 01:57:53 10° WNW 02:01:40 33° SW 02:03:25 24° SSW
Lacrosse 5 2.2 02:00:23 23° SSW 02:03:17 52° SE 02:08:13 10° ENE
Cosmos 1378 Rocket 4.2 02:02:33 10° N 02:06:53 55° ENE 02:11:09 10° SSE
USA 267 4.0 02:05:09 10° E 02:11:31 56° N 02:17:53 10° WNW
ADEOS Rocket 2.8 02:08:20 15° S 02:13:00 63° WSW 02:18:29 10° NNW
Cosmos 1536 3.8 02:11:14 21° WSW 02:13:16 34° WNW 02:16:59 10° N
Cosmos 2074 Rocket 4.0 02:09:07 18° SSW 02:13:58 84° W 02:20:14 10° N
NPP 3.7 02:10:13 10° NNE 02:15:37 77° WNW 02:19:39 18° SSW
Cosmos 2297 Rocket 2.6 02:13:29 17° SW 02:17:42 54° NW 02:23:18 10° NNE
Cosmos 2237 Rocket 3.5 02:14:41 10° NW 02:18:51 21° W 02:21:03 17° SW
AQUA 3.8 02:16:48 10° NNE 02:21:36 78° WNW 02:25:08 18° SSW
Cosmos 1356 Rocket 4.5 02:20:12 10° SSE 02:23:58 39° E 02:27:43 10° NNE
Cosmos 1733 Rocket 3.1 02:22:03 18° SSW 02:25:22 84° W 02:29:52 10° N
Cosmos 1603 4.4 02:20:32 10° NNW 02:26:05 58° NE 02:31:38 10° SE
ARIANE 5 R/B 4.3 02:22:56 10° NE 02:27:19 27° E 02:31:43 10° SSE
DELTA 2 DEB (DPAF) 4.1 02:23:21 10° SSE 02:27:47 90° ENE 02:32:16 10° NNW
Cosmos 2227 Rocket 2.5 02:24:05 17° SW 02:28:28 58° NW 02:34:04 10° NNE
Cosmos 44 3.6 02:25:59 10° NW 02:31:21 77° NE 02:36:24 10° SE
CZ-2D R/B 2.7 02:29:04 10° N 02:34:12 47° WNW 02:38:25 15° SW
ADEOS II 2.1 02:32:04 10° NNE 02:37:21 81° WNW 02:41:58 14° SSW
Okean 2 3.4 02:36:12 10° NNW 02:40:23 76° W 02:44:33 10° S
Meteor 2-9 Rocket 4.1 02:37:33 13° SSW 02:42:16 82° WNW 02:47:40 10° N
IRS-1D 3.5 02:37:35 10° NNE 02:42:34 87° ESE 02:47:18 12° SSW
SL-16 R/B 2.8 02:37:49 10° NW 02:42:57 36° WSW 02:48:04 10° S
CZ-4C R/B 2.9 02:37:18 10° NW 02:44:23 76° SW 02:52:41 10° SSE
CZ-4C R/B 3.5 02:43:40 10° SSE 02:47:46 84° ENE 02:52:07 10° NNW
Iridium 4 Rocket 3.8 02:45:09 10° N 02:50:28 61° W 02:56:08 10° SSW
Cosmos 614 Rocket 4.2 02:50:33 14° SW 02:55:03 65° WNW 03:00:17 10° NNE
Cosmos 2263 Rocket 2.8 02:49:37 10° S 02:55:08 55° ESE 03:00:43 10° NE
Cosmos 1743 4.4 02:54:36 11° WSW 02:57:11 20° WNW 03:00:05 10° NNW
Cosmos 2341 Rocket 4.2 02:53:14 10° S 02:59:28 78° E 03:05:42 10° NNE
Meteor 1-28 Rocket 3.9 02:56:40 12° SSW 02:59:51 34° W 03:03:19 10° NNW
Cosmos 1782 Rocket 4.4 02:56:24 10° SSE 03:00:35 49° E 03:04:50 10° NNE
Nadezhda 3 Rocket 4.5 02:59:31 10° NNW 03:05:32 46° W 03:11:31 10° SSW
Cosmos 407 Rocket 3.6 03:00:34 10° SSW 03:05:53 84° ESE 03:11:11 10° NNE
In-Cosmos 22 4.3 03:01:03 10° NNW 03:06:49 72° W 03:12:32 10° S
GEOS 3 Rocket 3.7 03:04:59 10° SSE 03:10:19 67° SW 03:15:38 10° NW
Cosmos 1818 4.4 03:05:28 10° NW 03:10:54 58° NE 03:16:18 10° ESE
ALOS 4.5 03:09:00 10° NE 03:12:47 24° E 03:16:32 10° SE
KORONAS-FOTON 3.9 03:09:05 10° N 03:13:02 86° E 03:16:58 10° S
ATLAS CENTAUR R/B 2.7 03:10:07 10° S 03:13:25 29° ESE 03:16:55 10° ENE
Cosmos 1975 3.6 03:10:02 11° SW 03:13:46 39° WNW 03:17:39 10° N
Landsat 4 4.2 03:10:14 10° N 03:13:48 45° WNW 03:17:20 10° SW
Cosmos 1763 Rocket 4.3 03:11:37 10° NNW 03:16:55 59° ENE 03:22:09 10° SE
USA 215 4.4 03:12:36 10° ENE 03:18:28 34° SE 03:24:20 10° SSW
Cosmos 1707 3.4 03:16:37 10° NNW 03:20:10 36° W 03:23:40 10° SSW
Spot 1 4.1 03:16:41 10° S 03:20:44 54° WSW 03:24:46 10° NNW
Cosmos 1461 3.2 03:16:16 10° SW 03:20:51 79° SE 03:25:17 10° NE
COSMOS 2441 4.4 03:16:51 10° NNE 03:21:41 88° W 03:26:31 10° SSW
Helios 1B rocket 4.1 03:19:12 10° NNW 03:22:18 21° WNW 03:25:23 10° WSW
Cosmos 1943 3.3 03:17:17 10° NW 03:22:56 64° WSW 03:28:33 10° SSE
Cosmos 1238 Rocket 3.4 03:22:29 10° SW 03:25:18 30° WNW 03:28:27 10° N
IRS-P3 4.2 03:20:00 10° NNE 03:25:22 89° W 03:30:43 10° SSW
ATLAS 5 CENTAUR R/B 4.4 03:00:35 10° WSW 03:25:36 69° NW 03:31:07 10° NE
SL-08 R/B 3.4 03:21:15 10° S 03:26:12 76° WSW 03:31:11 10° NNW
Meteor 1-29 4.4 03:24:12 10° N 03:26:55 24° WNW 03:29:37 10° WSW
IDEFIX/ARIANE 42P 2.9 03:22:59 10° N 03:28:02 54° WNW 03:33:04 10° SW
CBERS-1 4.4 03:24:28 10° N 03:29:27 51° WNW 03:34:23 10° SW
SL-24 R/B - RUBIN 2 3.8 03:26:36 10° NW 03:31:45 68° SW 03:36:20 10° SSE
SL-16 R/B 4.2 03:31:18 10° WSW 03:34:21 14° W 03:37:24 10° NW
Resurs 1-4 Rocket 4.0 03:32:19 10° NNW 03:35:48 18° NW 03:39:16 10° W
